Location: Newark
(49.3667°N, 21.6167°E)
Time: 23:04:30
(UTC+00:00)

Envisat - Pass Details

Date: 12 December 2019
Orbit: 764 x 766 km, 98.1° (Epoch: 21 January)

Event Time Altitude Azimuth Distance (km) Brightness Sun altitude
Rises 18:03:27 0° 220° (SW) 3,224 6.7 -32.8°
Reaches altitude 10° 18:07:12 10° 249° (WSW) 2,305 6.2 -33.4°
Maximum altitude 18:09:22 13° 275° (W) 2,128 6.1 -33.8°
Drops below altitude 10° 18:11:33 10° 300° (WNW) 2,313 6.1 -34.1°
Sets 18:15:21 0° 329° (NNW) 3,246 6.7 -34.7°
